User: anonymous   Login
Location: Maiden_LMO
(35.5760°N, 81.2120°W)
Time: 17:32:44
(UTC-05:00)
Language:

Cosmos 2278 Rocket - Orbit

View from above orbital plane
View from above orbital plane
View from above satellite
View from above satellite

Ground track
Ground track

The orbit data is extracted from the following two-line orbital elements,

1 23088U 94023B   14327.81185226 -.00000203  00000-0 -80809-4 0   772
2 23088 071.0015 087.3101 0001160 035.2158 127.8315 14.14599095 63125
Epoch (UTC): 23 November 2014 19:29:04
Eccentricity: 0.0001160
inclination: 71.0015°
perigee height: 843 km
apogee height: 844 km
right ascension of ascending node: 87.3101°
argument of perigee: 35.2158°
revolutions per day: 14.14599095
mean anomaly at epoch: 127.8315°
orbit number at epoch: 6312

The dashed part of the orbit path shows where the satellite is in the earth's shadow,  

DLR